Location: Home
(42.5358°N, 72.7383°W)
Time: 22:18:55
(UTC-05:00)

Altair - Pass Details

Date: 10 December 2021
Orbit: 1501 x 1683 km, 47.2° (Epoch: 26 January)

Event Time Altitude Azimuth Distance (km) Brightness Sun altitude
Rises 19:57:41 0° 296° (WNW) 4,691 10.8 -39.6°
Reaches altitude 10° 20:00:51 10° 292° (WNW) 3,689 10.1 -40.2°
Enters shadow 20:09:14 52° 228° (SW) 1,818 7.9 -41.7°
